Salem, IL

1:31 PM CST on February 26, 2017 (GMT -0600)
Salem-Leckrone

Weather History for KSLO - June, 2013

Change the Weather History Date:

Monday, June 17, 2013

  Actual Average Record
Temperature  
Mean Temperature 76 °F -  
Max Temperature 87 °F 85 °F 95 °F (1990)
Min Temperature 66 °F 61 °F 47 °F (1961)
Cooling Degree Days 11    
Growing Degree Days 26 (Base 50)    
Moisture  
Dew Point 70 °F    
Average Humidity 88    
Maximum Humidity 100    
Minimum Humidity 62    
Precipitation  
Precipitation 0.87 in - - ()
Sea Level Pressure  
Sea Level Pressure 29.94 in    
Wind  
Wind Speed 2 mph (ESE)    
Max Wind Speed 14 mph    
Max Gust Speed 30 mph    
Visibility 7 miles    
Events Rain , Thunderstorm    
Averages and records for this station are not official NWS values.
T = Trace of Precipitation, MM = Missing Value Source: NWS Daily Summary

Daily Weather History Graph

Daily Weather History Graph

Search for Another Location

Airport or City:

Trip Planner

Search our weather history database for the weather conditions in past years. The results will help you decide how hot, cold, wet, or windy it might be!

Date:

Astronomy

Jun. 17, 2013 Rise Set
Actual Time 5:30 AM CDT 8:22 PM CDT
Civil Twilight 4:59 AM CDT 8:54 PM CDT
Nautical Twilight 4:18 AM CDT 9:34 PM CDT
Astronomical Twilight 3:32 AM CDT 10:20 PM CDT
Moon 2:04 PM CDT (6/17) 1:02 AM CDT (6/17)
Length of Visible Light 15h 55m
Length of Day
14h 51m
First Quarter, 60% of the Moon is Illuminated
Jun 17
First Quarter
Jun 23
Full
Jun 29
Last Quarter
Jul 8
New
Jul 15
First Quarter

Hourly Weather History & Observations

Time (CDT) Temp. Heat Index Dew Point Humidity Pressure Visibility Wind Dir Wind Speed Gust Speed Precip Events Conditions
12:15 AM 73.0 °F - 72.1 °F 97% 29.96 in 7.0 mi Calm Calm - N/A   Clear
12:35 AM 72.5 °F - 72.0 °F 98% 29.95 in 4.0 mi SE 3.5 mph - N/A   Clear
12:55 AM 72.3 °F - 71.8 °F 98% 29.96 in 7.0 mi Calm Calm - N/A   Clear
1:15 AM 72.1 °F - 72.1 °F 100% 29.96 in 3.0 mi Calm Calm - N/A   Scattered Clouds
1:35 AM 72.0 °F - 72.0 °F 100% 29.96 in 3.0 mi Calm Calm - N/A   Mostly Cloudy
1:55 AM 72.0 °F - 72.0 °F 100% 29.96 in 3.0 mi Calm Calm - N/A   Scattered Clouds
2:15 AM 72.1 °F - 72.1 °F 100% 29.95 in 5.0 mi Calm Calm - N/A   Scattered Clouds
2:35 AM 71.6 °F - 71.6 °F 100% 29.95 in 5.0 mi Calm Calm - N/A   Scattered Clouds
2:55 AM 71.6 °F - 71.6 °F 100% 29.96 in 3.0 mi Calm Calm - N/A   Scattered Clouds
3:15 AM 72.0 °F - 72.0 °F 100% 29.95 in 4.0 mi Calm Calm - N/A   Scattered Clouds
3:35 AM 71.8 °F - 71.8 °F 100% 29.95 in 3.0 mi Calm Calm - N/A   Scattered Clouds
3:55 AM 71.8 °F - 71.8 °F 100% 29.96 in 4.0 mi Calm Calm - N/A   Scattered Clouds
4:15 AM 71.6 °F - 71.6 °F 100% 29.95 in 2.5 mi Calm Calm - N/A   Scattered Clouds
4:35 AM 71.4 °F - 71.4 °F 100% 29.95 in 2.5 mi Calm Calm - N/A   Scattered Clouds
4:55 AM 71.6 °F - 71.6 °F 100% 29.95 in 2.5 mi Calm Calm - N/A   Scattered Clouds
5:15 AM 72.1 °F - 72.1 °F 100% 29.94 in 4.0 mi Calm Calm - N/A   Mostly Cloudy
5:35 AM 72.5 °F - 72.5 °F 100% 29.94 in 5.0 mi Calm Calm - N/A   Scattered Clouds
5:55 AM 71.8 °F - 71.8 °F 100% 29.96 in 2.0 mi North 4.6 mph - N/A   Scattered Clouds
6:15 AM 72.1 °F - 72.1 °F 100% 29.96 in 2.5 mi Calm Calm - N/A   Scattered Clouds
6:35 AM 72.5 °F - 72.5 °F 100% 29.96 in 3.0 mi Calm Calm - N/A   Clear
6:55 AM 73.8 °F - 73.4 °F 99% 29.96 in 5.0 mi Calm Calm - N/A   Clear
7:15 AM 74.1 °F - 73.6 °F 98% 29.96 in 5.0 mi Calm Calm - N/A   Clear
7:35 AM 74.3 °F - 73.4 °F 97% 29.97 in 5.0 mi Calm Calm - N/A   Scattered Clouds
7:55 AM 74.3 °F - 73.0 °F 96% 29.96 in 5.0 mi Calm Calm - N/A   Mostly Cloudy
8:15 AM 75.0 °F - 73.2 °F 94% 29.96 in 5.0 mi Calm Calm - N/A   Mostly Cloudy
8:35 AM 76.1 °F - 72.9 °F 90% 29.97 in 7.0 mi Calm Calm - N/A   Mostly Cloudy
8:55 AM 78.1 °F - 73.4 °F 85% 29.96 in 7.0 mi ENE 3.5 mph - N/A   Scattered Clouds
9:15 AM 79.2 °F - 73.8 °F 83% 29.95 in 10.0 mi ENE 4.6 mph - N/A   Clear
9:35 AM 80.2 °F 84.7 °F 73.4 °F 80% 29.95 in 10.0 mi Calm Calm - N/A   Clear
9:55 AM 81.1 °F 85.8 °F 72.5 °F 75% 29.95 in 10.0 mi Calm Calm - N/A   Clear
10:15 AM 82.8 °F 89.0 °F 73.6 °F 74% 29.95 in 10.0 mi Calm Calm - N/A   Clear
10:35 AM 82.9 °F 88.8 °F 73.0 °F 72% 29.95 in 10.0 mi ENE 4.6 mph - N/A   Clear
10:55 AM 82.8 °F 88.4 °F 72.9 °F 72% 29.94 in 10.0 mi ESE 3.5 mph - N/A   Scattered Clouds
11:15 AM 83.5 °F 89.4 °F 72.9 °F 70% 29.95 in 10.0 mi East 4.6 mph - N/A   Scattered Clouds
11:35 AM 83.8 °F 89.8 °F 72.7 °F 69% 29.96 in 10.0 mi East 3.5 mph - N/A   Scattered Clouds
11:55 AM 84.6 °F 91.0 °F 72.9 °F 68% 29.95 in 10.0 mi Calm Calm - N/A   Scattered Clouds
12:15 PM 84.4 °F 90.6 °F 72.9 °F 68% 29.95 in 10.0 mi ENE 3.5 mph - N/A   Scattered Clouds
12:35 PM 84.9 °F 91.8 °F 73.2 °F 68% 29.95 in 10.0 mi Calm Calm - N/A   Scattered Clouds
12:55 PM 85.5 °F 91.1 °F 71.8 °F 63% 29.94 in 10.0 mi ESE 3.5 mph - N/A   Scattered Clouds
1:15 PM 85.8 °F 92.6 °F 72.9 °F 65% 29.93 in 10.0 mi SE 3.5 mph - N/A   Scattered Clouds
1:35 PM 85.8 °F 92.2 °F 72.3 °F 64% 29.93 in 10.0 mi ESE 5.8 mph - N/A   Scattered Clouds
1:55 PM 85.5 °F 91.8 °F 72.5 °F 65% 29.91 in 10.0 mi ENE 4.6 mph - N/A   Clear
2:15 PM 86.5 °F 92.9 °F 72.3 °F 62% 29.90 in 10.0 mi SE 3.5 mph - N/A   Clear
2:35 PM 86.0 °F 92.6 °F 72.5 °F 64% 29.89 in 10.0 mi ENE 4.6 mph - N/A   Clear
2:55 PM 86.5 °F 93.8 °F 72.9 °F 64% 29.88 in 10.0 mi ESE 4.6 mph - N/A   Clear
3:15 PM 85.3 °F 91.5 °F 72.3 °F 65% 29.88 in 10.0 mi SE 5.8 mph - N/A   Clear
3:35 PM 84.2 °F 89.9 °F 72.1 °F 67% 29.88 in 10.0 mi SE 5.8 mph - N/A Thunderstorm Scattered Clouds
3:55 PM 83.3 °F 89.0 °F 72.5 °F 70% 29.86 in 10.0 mi Calm Calm - N/A Thunderstorm Scattered Clouds
4:15 PM 78.8 °F - 65.5 °F 64% 29.90 in 10.0 mi SSE 4.6 mph 17.3 mph N/A   Mostly Cloudy
4:35 PM 73.8 °F - 63.0 °F 69% 29.97 in 2.5 mi NNW 13.8 mph 29.9 mph 0.11 in Rain , Thunderstorm Heavy Thunderstorms and Rain
4:55 PM 66.2 °F - 65.7 °F 98% 29.99 in 0.8 mi West 3.5 mph 28.8 mph 0.76 in Rain , Thunderstorm Heavy Thunderstorms and Rain
5:15 PM 66.7 °F - 66.7 °F 100% 29.96 in 2.0 mi SSE 6.9 mph - 0.09 in Rain , Thunderstorm Heavy Thunderstorms and Rain
5:35 PM 67.5 °F - 66.7 °F 98% 29.97 in 10.0 mi South 11.5 mph - 0.09 in Rain Light Rain
5:55 PM 67.3 °F - 66.0 °F 96% 29.96 in 7.0 mi South 9.2 mph - 0.09 in Rain , Thunderstorm Light Thunderstorms and Rain
6:15 PM 67.5 °F - 65.7 °F 94% 29.96 in 10.0 mi SW 9.2 mph - N/A Rain Rain
6:35 PM 67.5 °F - 66.2 °F 96% 29.98 in 5.0 mi WSW 4.6 mph - 0.01 in Rain Rain
6:55 PM 66.6 °F - 66.2 °F 99% 29.99 in 10.0 mi East 5.8 mph - 0.02 in Rain Light Rain
7:15 PM 66.4 °F - 65.1 °F 96% 29.97 in 10.0 mi South 6.9 mph - N/A Rain Light Rain
7:35 PM 66.6 °F - 65.3 °F 96% 29.94 in 10.0 mi SSE 8.1 mph - N/A Rain Light Rain
7:55 PM 67.3 °F - 65.3 °F 93% 29.93 in 10.0 mi SSE 8.1 mph - N/A Rain Light Rain
8:15 PM 67.5 °F - 65.3 °F 93% 29.92 in 10.0 mi South 5.8 mph - N/A Rain Light Rain
8:35 PM 67.5 °F - 65.3 °F 93% 29.91 in 10.0 mi South 4.6 mph - N/A   Scattered Clouds
8:55 PM 67.5 °F - 65.5 °F 93% 29.92 in 10.0 mi North 4.6 mph - N/A   Scattered Clouds
9:15 PM 67.6 °F - 66.2 °F 95% 29.93 in 10.0 mi NNW 6.9 mph - N/A   Mostly Cloudy
9:35 PM 67.5 °F - 66.4 °F 96% 29.93 in 10.0 mi NNW 4.6 mph - N/A   Overcast
9:55 PM 67.3 °F - 66.9 °F 99% 29.94 in 10.0 mi North 9.2 mph - N/A   Mostly Cloudy
10:15 PM 67.6 °F - 65.8 °F 94% 29.95 in 10.0 mi North 8.1 mph - N/A   Clear
10:35 PM 68.0 °F - 66.2 °F 94% 29.94 in 10.0 mi North 5.8 mph - N/A   Clear
10:55 PM 67.5 °F - 66.4 °F 96% 29.93 in 10.0 mi Calm Calm - N/A   Clear
11:15 PM 67.3 °F - 66.2 °F 96% 29.94 in 10.0 mi NE 3.5 mph - N/A   Clear
11:35 PM 67.1 °F - 66.4 °F 98% 29.93 in 10.0 mi East 5.8 mph - N/A   Mostly Cloudy
11:55 PM 67.3 °F - 67.1 °F 99% 29.94 in 10.0 mi Calm Calm - N/A   Mostly Cloudy